Wind_Speed
51 54 56 55 55 56 57 58 58 57 57 58 59 61 61 63 64 65 65 65 66 67 67 67 69 70 71 72 73 74 75 77 78 79 80 81 81 82 82 83 83 83 83 83 83 84 84 84 84 84 83 83
56 56 56 55 54 56 59 62 63 62 61 60 61 63 64 65 66 66 66 67 67 68 68 68 69 71 72 72 72 73 73 74 76 77 78 80 81 81 81 82 82 82 83 83 83 83 83 84 84 84 84 84
59 58 56 57 57 58 61 64 67 67 66 65 64 64 65 66 67 67 67 68 67 67 67 68 69 70 71 72 73 73 73 74 75 76 77 78 79 80 80 80 80 81 81 82 82 83 83 83 83 84 84 84
61 59 57 58 60 61 63 67 69 69 68 68 67 68 68 68 69 69 69 69 68 66 67 68 69 70 70 72 73 74 73 73 74 75 76 77 78 78 79 80 80 80 80 81 81 82 82 82 83 83 83 83
63 61 59 59 61 62 64 68 71 72 71 70 70 70 69 70 71 71 71 72 71 70 70 71 72 72 72 73 74 75 75 75 75 75 76 77 78 78 78 79 79 79 79 80 80 80 80 81 81 81 81 82
67 64 62 61 63 64 65 69 72 74 73 73 74 74 72 71 71 72 71 72 71 70 71 72 73 74 74 74 75 75 76 76 76 77 77 77 78 78 78 78 78 78 78 78 79 79 79 79 79 79 80 80
69 69 67 65 66 68 69 71 74 76 76 76 76 77 77 75 74 75 74 73 72 70 71 71 73 73 73 73 74 75 76 77 78 79 79 79 78 79 79 79 79 79 78 78 78 78 78 78 78 78 78 78
72 72 71 70 70 71 73 74 75 77 79 80 80 80 80 78 77 78 79 78 76 75 75 75 76 76 75 75 74 75 76 77 78 79 80 80 80 79 79 79 79 79 79 79 78 78 77 77 77 77 77 77
75 74 74 74 73 73 75 77 77 79 81 83 84 84 83 82 81 80 81 82 82 80 80 80 80 81 81 80 79 78 78 79 79 79 80 80 80 80 80 79 79 79 79 79 79 79 79 79 78 78 78 78
78 76 76 77 77 76 76 78 79 80 82 84 85 86 86 86 85 84 84 85 85 85 84 84 84 84 84 84 84 83 83 83 82 82 82 82 82 82 82 82 82 82 81 81 81 82 82 82 82 81 81 81
80 79 79 80 81 81 80 80 80 81 83 85 86 87 87 87 88 89 88 88 87 87 87 87 87 87 87 87 87 87 87 87 86 86 86 86 86 86 86 86 86 86 85 85 85 84 84 84 84 84 84 84
85 83 82 83 84 84 84 84 83 82 83 84 86 88 88 88 88 90 91 91 90 90 90 90 90 90 90 90 90 90 91 91 90 90 90 90 90 90 89 89 89 89 88 87 86 86 85 85 84 84 84 85
89 88 87 86 86 86 87 87 86 85 84 84 85 87 89 90 90 90 92 93 93 93 92 92 92 92 92 92 92 91 92 92 93 93 93 93 93 92 91 90 90 89 88 87 86 85 85 84 84 84 84 84
89 91 91 90 88 87 88 88 89 88 88 87 87 87 88 90 91 92 93 94 95 94 94 94 93 94 94 94 93 93 92 92 93 93 93 94 93 93 92 91 90 90 89 88 87 86 86 86 85 85 85 85
87 91 93 94 93 91 90 90 90 91 91 91 91 90 90 89 90 92 94 96 97 97 97 96 96 95 95 95 94 94 93 93 93 93 94 94 94 93 93 93 92 92 91 91 90 90 89 89 88 88 87 87
85 89 93 95 96 96 95 93 92 93 93 94 94 94 93 92 91 92 93 95 97 99 99 99 99 98 98 97 96 96 95 95 94 94 94 94 94 94 94 94 94 94 94 94 93 93 92 92 91 90 90 89
80 86 92 95 96 98 99 99 98 96 96 96 96 96 96 95 95 95 95 95 97 98 99 100 100 100 100 99 99 99 98 97 97 97 96 96 96 96 96 96 96 96 96 96 96 96 95 94 93 93 92 92
80 83 88 93 97 99 100 101 101 101 100 99 99 99 99 99 99 99 99 99 99 100 101 101 102 102 102 102 102 102 101 101 101 101 101 100 100 100 99 99 99 99 98 98 98 97 97 96 96 95 95 95
84 84 85 88 92 97 100 101 102 102 103 103 103 103 103 103 102 102 102 102 103 104 104 105 105 105 105 104 105 105 105 105 105 105 104 104 104 103 103 102 102 101 101 101 100 100 99 99 99 99 99 99
86 86 86 86 88 91 95 99 102 103 104 105 105 106 107 107 106 106 105 106 106 107 107 108 108 107 107 106 106 107 107 107 107 107 107 107 106 106 105 105 104 103 103 103 103 102 102 102 102 102 102 102
89 90 89 89 89 89 90 93 97 101 105 106 107 107 108 109 109 109 108 109 109 110 110 110 110 109 109 108 108 108 108 108 108 108 109 109 108 108 108 107 106 105 105 105 105 105 105 105 104 104 104 104
91 92 92 92 91 91 91 91 93 96 100 104 107 109 110 110 110 110 110 110 111 112 112 112 112 112 112 111 111 111 111 111 111 111 111 111 111 110 110 109 108 108 107 107 108 108 107 107 107 107 107 107
92 92 93 94 95 94 94 94 95 96 96 98 101 105 109 111 112 112 112 113 113 114 114 115 115 115 115 115 115 114 114 114 114 114 114 114 113 112 112 111 111 110 110 110 110 110 110 110 110 110 110 110
93 94 95 96 97 97 98 98 99 98 98 98 99 101 103 106 109 111 113 114 115 115 116 117 117 117 117 117 117 116 116 116 116 116 116 115 114 114 113 113 113 112 112 112 113 113 114 114 114 114 113 113
92 94 96 98 99 100 101 101 101 101 101 101 102 102 102 103 104 107 109 112 114 116 117 118 118 118 119 119 119 119 119 119 118 118 117 117 117 116 116 116 115 115 115 115 116 117 118 118 118 117 116 116
89 92 96 99 100 102 103 103 103 104 104 105 105 105 105 105 105 106 108 110 112 114 115 117 118 118 118 118 119 119 120 120 119 119 119 119 119 119 119 118 118 118 118 119 121 122 122 121 121 120 119 119
86 90 93 97 99 101 103 104 105 106 107 108 108 108 109 109 110 110 111 111 112 112 112 113 115 116 117 117 118 119 119 119 119 119 119 119 120 120 120 119 120 120 121 122 123 124 124 123 122 122 121 122
84 87 90 92 95 98 100 103 105 107 108 109 110 112 113 113 114 114 114 114 114 113 112 112 113 113 114 116 117 119 120 120 121 121 122 122 122 122 122 122 122 123 123 124 125 125 125 124 124 123 124 125
84 85 87 88 91 93 96 99 103 106 108 109 111 113 115 116 116 117 116 116 116 115 115 115 115 115 116 116 117 118 119 120 121 122 123 124 124 125 125 125 125 125 125 126 127 127 127 126 126 126 127 127
84 85 86 87 88 90 92 94 97 101 104 107 110 113 114 115 116 117 117 118 119 119 119 118 119 119 119 119 119 120 120 120 121 122 122 123 124 124 125 125 124 124 125 126 127 127 127 127 126 126 127 127
82 84 85 87 88 89 90 91 93 96 99 102 105 108 111 113 115 117 118 119 120 121 121 121 122 122 122 122 123 123 123 123 123 124 124 125 125 125 125 124 123 124 125 125 126 126 126 126 126 126 126 126
Wind_Direction
225 226 230 231 228 226 219 213 216 220 222 225 228 230 231 232 233 234 236 238 240 241 242 243 244 244 244 245 245 245 245 246 246 246 247 247 247 247 247 248 248 249 249 250 250 251 251 252 252 253 253 253
227 226 227 230 230 229 224 218 217 219 221 223 226 229 230 232 233 235 237 238 240 242 243 244 244 245 245 246 245 246 246 246 246 246 247 247 247 247 248 248 248 249 249 250 250 251 251 252 252 253 253 253
227 227 225 227 229 229 227 223 219 220 222 224 227 229 230 231 232 234 236 238 240 242 244 246 246 247 248 248 247 246 246 247 246 246 247 247 247 248 248 248 248 248 249 249 250 251 251 252 252 253 253 254
228 228 226 226 227 228 228 227 223 221 223 224 227 230 231 233 234 235 236 237 239 240 242 244 245 246 247 248 248 247 247 247 247 247 247 247 247 248 248 248 248 248 249 249 250 250 251 252 252 253 253 253
228 228 229 228 228 229 229 229 227 224 224 225 227 229 231 233 235 236 237 238 239 240 242 243 244 245 246 248 248 248 247 248 248 248 248 248 247 248 248 249 249 249 250 250 250 251 251 252 252 253 253 253
228 226 227 229 230 230 230 229 229 228 227 227 227 228 231 233 233 235 237 239 240 241 243 244 245 246 248 249 249 249 248 247 248 248 248 248 248 249 249 249 250 250 250 250 251 251 251 252 252 252 253 253
230 228 227 228 230 230 230 230 229 229 229 229 229 229 231 233 233 234 235 237 238 239 239 241 242 243 244 245 247 247 247 247 247 247 248 249 249 250 250 250 250 250 250 251 251 251 251 252 252 252 253 253
231 230 228 228 231 232 231 230 230 230 230 231 231 231 231 233 234 235 235 235 236 237 238 238 239 240 240 242 244 245 246 247 247 248 249 250 250 251 251 251 251 251 251 251 252 252 252 252 252 253 253 253
230 231 230 229 230 232 233 232 231 231 231 232 233 233 233 233 234 236 236 236 237 238 239 239 239 239 240 241 243 245 247 248 249 250 250 251 252 252 253 253 252 253 253 253 253 253 253 254 254 254 253 253
229 231 232 232 231 231 233 233 232 232 232 233 233 234 234 234 235 235 237 238 238 239 240 240 241 241 241 242 243 245 247 248 249 250 250 251 252 253 254 254 254 255 255 255 255 256 256 256 256 255 255 255
229 230 232 233 233 232 233 233 234 233 233 233 234 235 235 236 237 236 237 239 239 240 240 241 242 242 243 243 244 245 246 248 249 250 251 252 253 254 255 255 256 256 257 257 257 258 258 258 257 257 256 256
230 230 231 233 234 234 234 234 235 235 235 234 235 235 236 237 238 239 239 240 240 241 241 242 243 243 244 245 246 246 247 248 249 250 252 253 254 255 255 256 256 257 257 258 258 258 258 258 257 257 256 256
232 232 232 233 234 235 236 236 236 237 237 237 237 237 237 237 238 239 240 241 242 242 243 243 244 244 245 246 247 247 248 249 250 251 252 253 254 254 255 255 256 256 257 257 257 257 257 257 257 257 256 256
235 234 234 234 235 235 237 237 237 237 238 238 238 239 239 239 239 239 240 241 242 243 244 245 245 245 246 247 247 248 249 249 250 250 251 252 253 253 254 254 255 255 255 255 256 256 257 257 256 256 256 256
237 236 236 236 236 236 236 237 237 238 238 238 239 239 240 240 241 241 241 241 242 243 244 245 246 246 247 247 248 248 249 249 250 250 251 251 252 252 253 253 254 254 255 255 255 256 257 257 256 256 256 256
239 238 238 237 237 237 237 237 237 238 238 239 239 240 240 240 241 242 242 243 243 244 244 245 245 246 247 247 248 248 248 249 250 251 252 252 252 253 253 254 254 255 255 255 256 256 257 257 257 257 256 256
239 239 239 239 239 238 239 239 239 239 239 239 240 241 241 241 241 241 241 242 243 244 245 245 246 246 247 247 248 248 249 250 250 251 252 253 253 253 254 255 255 256 256 257 257 257 258 257 257 257 257 257
240 240 239 240 240 239 239 240 240 240 240 240 241 241 241 241 241 241 241 241 242 243 245 246 246 247 247 248 248 249 250 250 251 252 252 253 253 254 254 255 255 256 257 257 257 258 258 258 258 258 258 258
241 241 241 241 241 241 241 241 241 241 242 242 242 242 242 242 242 242 242 242 243 243 244 245 246 247 247 248 249 250 250 251 252 252 253 253 253 254 254 254 255 255 256 256 257 257 257 258 258 258 258 259
243 243 243 243 243 243 242 242 242 242 242 243 243 244 244 244 244 244 244 243 244 244 245 245 246 247 248 248 249 250 250 251 251 252 252 253 253 253 254 254 255 255 255 256 256 256 257 257 258 258 258 259
244 244 244 244 244 245 245 244 244 243 243 243 243 244 245 246 246 246 246 245 245 245 246 246 247 248 248 249 249 250 250 251 251 251 252 252 253 253 254 255 255 255 256 256 256 256 257 257 258 258 259 259
247 246 245 245 245 245 246 246 246 245 244 243 243 244 245 246 246 247 247 247 247 247 247 248 249 249 249 250 250 251 251 251 251 252 252 253 253 254 254 255 256 256 256 257 257 258 258 259 259 260 260 260
249 248 248 247 247 246 246 246 246 246 246 246 245 245 245 245 246 247 247 248 248 248 249 249 249 250 250 251 251 252 252 252 252 253 253 254 254 255 256 256 257 257 257 258 258 259 260 260 260 260 260 260
246 247 248 249 248 248 247 247 247 247 247 248 248 247 246 246 246 246 247 248 248 249 249 250 250 251 251 251 252 252 253 253 253 254 254 255 256 256 256 257 257 258 258 259 259 259 259 259 259 259 259 260
243 244 245 247 248 248 248 249 249 249 249 249 249 249 249 248 248 248 248 248 248 248 249 249 250 251 251 252 252 253 253 254 254 255 255 256 256 257 257 257 258 258 258 258 259 259 259 259 259 259 259 260
243 243 243 243 244 246 247 248 249 249 249 250 250 250 250 250 250 249 249 249 248 248 249 249 250 251 251 252 253 254 255 255 256 256 256 257 257 257 258 258 258 258 258 258 258 259 259 259 259 260 260 261
246 245 244 243 243 243 244 246 247 248 249 249 250 250 250 250 250 250 250 250 250 250 250 250 251 251 252 252 253 254 255 255 256 256 257 257 257 258 258 258 258 258 258 259 259 259 259 260 261 261 262 262
248 247 247 246 245 245 245 245 245 246 247 248 249 249 250 250 250 250 251 251 251 251 251 252 252 252 252 252 253 253 254 254 255 255 255 256 256 257 257 257 257 258 258 259 260 260 261 261 261 262 262 262
250 249 249 248 248 247 247 246 246 246 246 246 247 248 249 250 250 251 251 252 252 252 253 253 253 253 253 253 253 253 253 253 254 254 254 255 255 256 256 257 257 258 258 259 260 260 261 261 261 261 261 262
251 250 250 249 249 248 248 248 248 248 247 247 247 248 249 249 250 251 251 252 252 252 253 253 253 253 253 253 254 254 254 254 254 254 255 255 255 256 256 256 257 258 258 258 259 259 260 260 260 260 261 261
253 252 251 251 250 250 249 249 249 249 249 249 249 249 249 249 250 250 251 251 252 252 252 253 253 253 254 254 254 255 255 255 255 256 256 256 256 256 256 257 257 257 257 258 258 258 259 259 259 260 260 261
Height
10677 10677 10679 10681 10684 10686 10688 10689 10691 10692 10694 10697 10699 10700 10702 10703 10704 10706 10708 10710 10711 10712 10714 10715 10716 10717 10719 10720 10721 10723 10724 10725 10727 10729 10730 10732 10734 10736 10738 10740 10742 10744 10745 10747 10748 10749 10751 10753 10755 10757 10759 10761
10670 10671 10674 10677 10680 10682 10683 10685 10685 10687 10689 10691 10693 10694 10696 10697 10699 10700 10701 10703 10705 10706 10707 10709 10709 10711 10712 10714 10715 10717 10718 10719 10721 10722 10723 10725 10727 10729 10731 10733 10735 10737 10739 10740 10742 10743 10744 10746 10748 10750 10752 10754
10663 10666 10670 10672 10674 10676 10678 10679 10680 10682 10683 10685 10688 10689 10691 10692 10693 10694 10695 10697 10699 10700 10702 10703 10704 10705 10706 10708 10709 10710 10712 10713 10714 10715 10716 10718 10719 10721 10723 10725 10728 10730 10732 10733 10735 10736 10738 10739 10741 10743 10744 10746
10658 10662 10664 10666 10668 10670 10672 10673 10674 10676 10678 10680 10682 10684 10685 10686 10687 10688 10689 10691 10692 10694 10696 10697 10698 10699 10700 10700 10702 10703 10705 10706 10707 10708 10709 10710 10712 10713 10715 10717 10720 10722 10724 10726 10728 10729 10731 10733 10734 10736 10737 10739
10653 10657 10659 10661 10662 10665 10666 10667 10668 10670 10672 10674 10676 10677 10678 10680 10681 10682 10683 10684 10686 10688 10689 10690 10691 10692 10693 10694 10695 10696 10698 10699 10700 10701 10701 10703 10705 10706 10708 10710 10712 10715 10717 10719 10721 10722 10724 10726 10727 10729 10730 10731
10647 10650 10653 10654 10656 10659 10660 10661 10662 10664 10667 10668 10669 10670 10672 10673 10674 10675 10676 10677 10679 10681 10683 10684 10684 10686 10687 10687 10688 10689 10690 10691 10692 10693 10694 10696 10697 10699 10701 10703 10705 10707 10709 10711 10713 10715 10716 10718 10720 10721 10722 10724
10641 10643 10645 10647 10649 10651 10652 10653 10655 10657 10660 10661 10662 10663 10665 10666 10667 10668 10669 10670 10672 10674 10675 10676 10677 10678 10679 10680 10679 10681 10682 10683 10684 10685 10687 10688 10690 10692 10694 10696 10697 10699 10701 10703 10705 10706 10708 10710 10711 10713 10714 10715
10634 10636 10638 10640 10642 10643 10644 10645 10647 10650 10652 10653 10655 10656 10657 10659 10660 10661 10661 10663 10665 10666 10667 10668 10669 10670 10671 10672 10672 10673 10675 10676 10677 10679 10680 10682 10683 10685 10687 10688 10690 10692 10693 10695 10697 10698 10700 10702 10703 10705 10706 10707
10627 10629 10631 10633 10634 10635 10636 10638 10640 10642 10644 10645 10646 10648 10650 10652 10653 10653 10653 10654 10656 10658 10660 10660 10661 10662 10663 10665 10666 10667 10668 10669 10670 10672 10673 10674 10676 10677 10679 10681 10682 10684 10685 10687 10688 10690 10692 10693 10695 10696 10698 10699
10621 10623 10624 10625 10626 10627 10629 10631 10633 10634 10636 10637 10638 10640 10642 10644 10645 10645 10645 10646 10648 10650 10652 10653 10653 10654 10655 10657 10659 10659 10660 10662 10663 10664 10665 10667 10668 10670 10671 10672 10674 10675 10677 10678 10680 10682 10683 10685 10687 10688 10689 10690
10613 10615 10616 10616 10617 10619 10621 10622 10625 10626 10627 10629 10631 10632 10634 10635 10636 10636 10637 10637 10640 10642 10644 10645 10646 10647 10648 10649 10651 10652 10653 10654 10655 10656 10657 10659 10660 10661 10663 10664 10666 10667 10669 10670 10671 10673 10674 10676 10678 10679 10681 10682
10605 10607 10607 10607 10608 10610 10612 10614 10616 10618 10620 10621 10622 10624 10625 10627 10628 10628 10629 10630 10631 10633 10635 10637 10638 10639 10640 10641 10643 10644 10645 10646 10647 10648 10649 10650 10652 10653 10654 10656 10657 10658 10660 10661 10662 10664 10665 10667 10668 10670 10672 10673
10596 10598 10599 10600 10600 10602 10604 10606 10608 10610 10612 10613 10613 10615 10617 10618 10620 10621 10621 10621 10622 10623 10625 10627 10629 10630 10631 10632 10634 10635 10636 10637 10638 10639 10640 10641 10643 10644 10645 10647 10648 10649 10651 10652 10653 10655 10656 10657 10659 10661 10663 10664
10587 10589 10590 10591 10593 10594 10596 10598 10599 10601 10603 10603 10604 10606 10607 10609 10611 10612 10612 10612 10613 10614 10616 10617 10619 10620 10621 10623 10624 10626 10627 10628 10629 10630 10631 10632 10633 10635 10636 10638 10639 10640 10642 10643 10645 10646 10647 10648 10650 10652 10653 10655
10576 10578 10580 10581 10583 10585 10586 10588 10589 10591 10593 10593 10594 10596 10598 10600 10602 10603 10603 10603 10604 10605 10606 10607 10608 10610 10611 10613 10614 10616 10617 10618 10619 10620 10621 10623 10624 10625 10627 10628 10629 10631 10632 10634 10635 10637 10638 10639 10640 10642 10644 10645
10565 10567 10568 10570 10573 10575 10576 10577 10580 10582 10583 10584 10584 10586 10588 10590 10592 10593 10594 10594 10594 10594 10595 10597 10598 10599 10601 10602 10604 10605 10607 10608 10609 10611 10612 10613 10615 10616 10617 10618 10620 10621 10623 10624 10626 10627 10629 10630 10631 10632 10634 10635
10555 10556 10557 10559 10561 10563 10564 10567 10569 10571 10573 10575 10575 10577 10578 10580 10581 10582 10583 10583 10583 10584 10585 10586 10587 10589 10591 10592 10594 10595 10596 10598 10600 10601 10602 10603 10605 10606 10607 10609 10610 10611 10613 10614 10616 10617 10618 10620 10621 10622 10624 10625
10544 10545 10545 10546 10548 10550 10553 10555 10557 10560 10563 10564 10566 10566 10567 10568 10570 10571 10572 10572 10573 10574 10575 10576 10577 10579 10581 10583 10584 10585 10586 10588 10589 10590 10591 10592 10594 10595 10597 10598 10599 10601 10602 10604 10605 10606 10608 10609 10610 10612 10613 10615
10534 10534 10535 10537 10539 10540 10542 10544 10547 10549 10551 10553 10555 10555 10555 10557 10559 10561 10562 10563 10564 10565 10565 10565 10566 10568 10570 10572 10574 10574 10576 10577 10578 10579 10580 10581 10583 10584 10585 10587 10589 10590 10592 10593 10594 10595 10597 10598 10600 10601 10603 10604
10525 10526 10527 10529 10530 10531 10533 10535 10537 10539 10540 10542 10543 10544 10544 10545 10547 10549 10551 10553 10554 10554 10554 10554 10555 10558 10560 10562 10563 10564 10564 10566 10567 10568 10569 10570 10571 10572 10573 10575 10577 10579 10580 10582 10583 10584 10586 10587 10588 10590 10592 10593
10515 10516 10517 10519 10521 10523 10524 10526 10527 10527 10528 10530 10531 10532 10532 10532 10535 10538 10540 10542 10542 10542 10543 10544 10545 10547 10549 10551 10551 10552 10552 10554 10555 10555 10556 10557 10558 10560 10562 10564 10566 10568 10569 10571 10571 10572 10574 10575 10577 10579 10580 10581
10504 10506 10508 10510 10512 10513 10514 10515 10515 10514 10515 10517 10518 10519 10520 10521 10523 10526 10528 10529 10530 10531 10532 10533 10534 10535 10536 10537 10538 10538 10539 10540 10541 10542 10543 10544 10546 10549 10551 10554 10556 10557 10558 10559 10560 10561 10562 10564 10566 10567 10568 10569
10493 10496 10498 10498 10499 10501 10502 10502 10501 10501 10503 10506 10507 10508 10509 10510 10512 10514 10515 10516 10517 10519 10520 10520 10521 10522 10523 10523 10524 10525 10526 10527 10528 10529 10531 10533 10536 10539 10541 10543 10544 10545 10546 10547 10549 10550 10551 10552 10553 10554 10555 10556
10480 10483 10485 10485 10486 10489 10489 10489 10489 10492 10494 10496 10496 10496 10496 10498 10500 10501 10502 10503 10504 10505 10506 10506 10507 10508 10509 10510 10511 10512 10513 10514 10516 10518 10521 10523 10525 10527 10529 10531 10532 10534 10536 10537 10537 10537 10537 10537 10538 10540 10542 10543
10465 10468 10470 10471 10472 10474 10476 10477 10479 10482 10484 10483 10483 10483 10485 10487 10488 10489 10489 10489 10489 10490 10491 10491 10493 10495 10496 10498 10500 10501 10502 10503 10505 10508 10510 10512 10513 10515 10517 10519 10521 10523 10524 10524 10523 10521 10521 10522 10525 10527 10529 10530
10451 10453 10453 10454 10456 10458 10461 10464 10466 10468 10469 10469 10470 10471 10472 10474 10474 10474 10474 10473 10473 10475 10477 10479 10481 10484 10486 10489 10490 10490 10490 10491 10494 10496 10498 10500 10501 10502 10504 10507 10509 10509 10509 10509 10506 10505 10507 10509 10512 10514 10516 10517
10441 10441 10440 10441 10443 10445 10447 10451 10452 10453 10454 10455 10456 10457 10457 10458 10458 10457 10458 10458 10459 10462 10466 10469 10472 10475 10477 10479 10479 10479 10479 10481 10483 10484 10485 10486 10487 10488 10490 10493 10494 10493 10494 10493 10491 10491 10494 10497 10500 10502 10504 10503
10430 10430 10431 10432 10434 10435 10437 10438 10438 10437 10439 10441 10441 10440 10440 10441 10441 10442 10444 10446 10448 10452 10456 10459 10461 10463 10465 10465 10466 10466 10467 10469 10469 10470 10470 10471 10472 10473 10475 10477 10478 10478 10480 10480 10479 10479 10482 10486 10488 10490 10489 10486
10417 10418 10420 10422 10423 10425 10426 10426 10425 10424 10426 10427 10425 10424 10425 10426 10427 10429 10433 10436 10437 10440 10443 10444 10446 10448 10449 10449 10450 10452 10453 10453 10453 10454 10456 10456 10457 10459 10460 10462 10464 10466 10468 10468 10466 10466 10470 10472 10473 10474 10472 10469
10405 10406 10408 10410 10411 10413 10414 10414 10414 10414 10413 10413 10412 10411 10412 10414 10415 10417 10420 10422 10422 10424 10427 10428 10430 10431 10432 10433 10435 10436 10437 10437 10438 10439 10440 10441 10443 10445 10445 10448 10452 10454 10454 10453 10452 10452 10454 10456 10456 10458 10457 10455
10394 10395 10396 10397 10398 10399 10400 10402 10402 10401 10400 10401 10401 10400 10401 10402 10402 10403 10404 10405 10406 10408 10411 10413 10415 10416 10417 10418 10420 10421 10423 10423 10423 10423 10424 10426 10428 10429 10430 10434 10438 10438 10436 10437 10437 10437 10438 10440 10441 10443 10442 10441